Weather History for Longville, MN

Change the Weather History Date:

Thursday, January 9, 2014

  Actual Average (KPWC) Record (KPWC)
Temperature  
Mean Temperature 4 °F -  
Max Temperature 17 °F 17 °F 46 °F (2012)
Min Temperature -9 °F 1 °F -27 °F (1999)
Degree Days  
Heating Degree Days 61    
Moisture  
Dew Point 3 °F    
Average Humidity 76    
Maximum Humidity 93    
Minimum Humidity 66    
Precipitation  
Precipitation 0.00 in - - ()
Sea Level Pressure  
Sea Level Pressure 29.95 in    
Wind  
Wind Speed 11 mph (SSE)    
Max Wind Speed 17 mph    
Max Gust Speed 25 mph    
Visibility 10 miles    
Events      
Averages and records for this station are not official NWS values.
T = Trace of Precipitation, MM = Missing Value Source: NWS Daily Summary

Daily Weather History Graph

Daily Weather History Graph

Search for Another Location

Airport:

Trip Planner

Search our weather history database for the weather conditions in past years. The results will help you decide how hot, cold, wet, or windy it might be!

Date:

Astronomy

Jan. 09, 2014 Rise Set
Actual Time 8:01 AM CST 4:47 PM CST
Civil Twilight 7:26 AM CST 5:21 PM CST
Nautical Twilight 6:48 AM CST 6:00 PM CST
Astronomical Twilight 6:11 AM CST 6:36 PM CST
Moon 12:23 PM CST (1/9) 1:59 AM CST (1/9)
Length of Visible Light 9h 55m
Length of Day
8h 46m
Waxing Gibbous, 66% of the Moon is Illuminated
Jan 9
Waxing Gibbous
Jan 15
Full
Jan 23
Last Quarter
Jan 30
New
Feb 6
First Quarter

Hourly Weather History & Observations

Time (CST) Temp. Windchill Dew Point Humidity Pressure Visibility Wind Dir Wind Speed Gust Speed Precip Events Conditions
12:16 AM -9.4 °F -25.6 °F -14.8 °F 77% 30.25 in 10.0 mi SSE 8.1 mph - N/A   Mostly Cloudy
12:36 AM -7.6 °F -23.4 °F -13.0 °F 77% 30.25 in 10.0 mi South 8.1 mph - N/A   Overcast
12:56 AM -7.6 °F -23.4 °F -11.2 °F 84% 30.23 in 10.0 mi SSE 8.1 mph - N/A   Overcast
1:16 AM -5.8 °F -22.4 °F -11.2 °F 77% 30.22 in 10.0 mi SSE 9.2 mph - N/A   Overcast
1:36 AM -5.8 °F -21.2 °F -11.2 °F 77% 30.22 in 10.0 mi South 8.1 mph - N/A   Overcast
1:56 AM -5.8 °F -21.2 °F -9.4 °F 84% 30.21 in 10.0 mi SSE 8.1 mph - N/A   Overcast
2:16 AM -4.0 °F -19.0 °F -9.4 °F 78% 30.21 in 10.0 mi South 8.1 mph - N/A   Overcast
2:36 AM -5.8 °F -21.2 °F -11.2 °F 77% 30.19 in 10.0 mi SE 8.1 mph - N/A   Overcast
2:56 AM -4.0 °F -20.2 °F -9.4 °F 78% 30.19 in 10.0 mi SSE 9.2 mph - N/A   Overcast
3:16 AM -4.0 °F -19.0 °F -9.4 °F 78% 30.17 in 10.0 mi SSE 8.1 mph - N/A   Overcast
3:36 AM -2.2 °F -19.9 °F -9.4 °F 71% 30.17 in 10.0 mi SSE 11.5 mph - N/A   Overcast
3:56 AM -2.2 °F -18.0 °F -7.6 °F 78% 30.16 in 10.0 mi SSE 9.2 mph - N/A   Overcast
4:16 AM -0.4 °F -17.6 °F -7.6 °F 72% 30.14 in 10.0 mi SSE 11.5 mph - N/A   Overcast
4:36 AM 1.4 °F -16.1 °F -7.6 °F 66% 30.13 in 10.0 mi SSE 12.7 mph 18.4 mph N/A   Overcast
4:56 AM 1.4 °F -16.9 °F -5.8 °F 72% 30.11 in 10.0 mi SSE 13.8 mph 18.4 mph N/A   Overcast
5:16 AM 1.4 °F -15.3 °F -5.8 °F 72% 30.09 in 10.0 mi SSE 11.5 mph 20.7 mph N/A   Overcast
5:36 AM 1.4 °F -16.1 °F -5.8 °F 72% 30.08 in 10.0 mi SSE 12.7 mph 20.7 mph N/A   Overcast
5:56 AM 1.4 °F -15.3 °F -5.8 °F 72% 30.07 in 10.0 mi SSE 11.5 mph 17.3 mph N/A   Overcast
6:16 AM 3.2 °F -13.1 °F -5.8 °F 66% 30.05 in 10.0 mi SSE 11.5 mph 18.4 mph N/A   Overcast
6:36 AM 3.2 °F -13.9 °F -4.0 °F 72% 30.03 in 10.0 mi SSE 12.7 mph - N/A   Overcast
6:56 AM 5.0 °F -10.8 °F -2.2 °F 72% 30.02 in 10.0 mi South 11.5 mph - N/A   Overcast
7:16 AM 6.8 °F -8.6 °F -2.2 °F 67% 30.02 in 10.0 mi South 11.5 mph 19.6 mph N/A   Overcast
7:36 AM 6.8 °F -9.3 °F -0.4 °F 72% 30.01 in 10.0 mi South 12.7 mph 20.7 mph N/A   Overcast
7:56 AM 6.8 °F -9.3 °F -0.4 °F 72% 30.00 in 10.0 mi South 12.7 mph 19.6 mph N/A   Overcast
8:16 AM 6.8 °F -10.0 °F -0.4 °F 72% 30.00 in 10.0 mi South 13.8 mph - N/A   Overcast
8:36 AM 8.6 °F -6.3 °F 1.4 °F 73% 29.99 in 10.0 mi South 11.5 mph 19.6 mph N/A   Overcast
8:56 AM 8.6 °F -8.9 °F 1.4 °F 73% 29.99 in 10.0 mi South 16.1 mph 20.7 mph N/A   Overcast
9:16 AM 10.4 °F -7.2 °F 1.4 °F 67% 29.99 in 10.0 mi South 17.3 mph 20.7 mph N/A   Overcast
9:36 AM 10.4 °F -5.4 °F 3.2 °F 73% 29.98 in 10.0 mi South 13.8 mph 19.6 mph N/A   Overcast
9:56 AM 10.4 °F -5.4 °F 3.2 °F 73% 29.97 in 10.0 mi SSE 13.8 mph 20.7 mph N/A   Overcast
10:16 AM 12.2 °F -1.8 °F 5.0 °F 73% 29.97 in 10.0 mi South 11.5 mph 19.6 mph N/A   Overcast
10:36 AM 12.2 °F -2.5 °F 5.0 °F 73% 29.97 in 10.0 mi South 12.7 mph 20.7 mph N/A   Overcast
10:56 AM 12.2 °F -4.3 °F 6.8 °F 79% 29.96 in 10.0 mi South 16.1 mph 19.6 mph N/A   Overcast
11:16 AM 12.2 °F -4.3 °F 6.8 °F 79% 29.95 in 10.0 mi South 16.1 mph 21.9 mph N/A   Overcast
11:36 AM 14.0 °F 0.5 °F 6.8 °F 73% 29.94 in 10.0 mi SSE 11.5 mph 21.9 mph N/A   Scattered Clouds
11:56 AM 14.0 °F -2.0 °F 6.8 °F 73% 29.92 in 10.0 mi South 16.1 mph 24.2 mph N/A   Clear
12:16 PM 14.0 °F 0.5 °F 6.8 °F 73% 29.91 in 10.0 mi South 11.5 mph 21.9 mph N/A   Clear
12:36 PM 15.8 °F 1.4 °F 8.6 °F 73% 29.90 in 10.0 mi South 13.8 mph 20.7 mph N/A   Mostly Cloudy
12:56 PM 15.8 °F 0.9 °F 8.6 °F 73% 29.88 in 10.0 mi South 15.0 mph 24.2 mph N/A   Scattered Clouds
1:16 PM 15.8 °F 0.9 °F 8.6 °F 73% 29.87 in 10.0 mi SSE 15.0 mph 19.6 mph N/A   Clear
1:36 PM 15.8 °F -0.2 °F 8.6 °F 73% 29.86 in 10.0 mi SSE 17.3 mph 25.3 mph N/A   Scattered Clouds
1:56 PM 15.8 °F -0.2 °F 8.6 °F 73% 29.85 in 10.0 mi SSE 17.3 mph 21.9 mph N/A   Scattered Clouds
2:36 PM 15.8 °F 0.9 °F 8.6 °F 73% 29.84 in 10.0 mi SSE 15.0 mph 20.7 mph N/A   Clear
2:56 PM 17.6 °F 2.2 °F 8.6 °F 68% 29.84 in 10.0 mi SSE 17.3 mph - N/A   Clear
3:16 PM 17.6 °F 2.7 °F 8.6 °F 68% 29.84 in 10.0 mi SSE 16.1 mph - N/A   Clear
3:36 PM 17.6 °F 4.3 °F 8.6 °F 68% 29.84 in 10.0 mi SSE 12.7 mph 18.4 mph N/A   Clear
3:56 PM 17.6 °F 4.3 °F 8.6 °F 68% 29.84 in 10.0 mi SSE 12.7 mph - N/A   Clear
4:16 PM 17.6 °F 5.0 °F 8.6 °F 68% 29.84 in 10.0 mi SSE 11.5 mph 18.4 mph N/A   Clear
5:36 PM 15.8 °F 3.4 °F 10.4 °F 79% 29.84 in 10.0 mi SSE 10.4 mph 16.1 mph N/A   Clear
5:56 PM 15.8 °F 4.2 °F 10.4 °F 79% 29.83 in 10.0 mi SSE 9.2 mph - N/A   Clear
6:16 PM 15.8 °F 2.7 °F 10.4 °F 79% 29.83 in 10.0 mi SSE 11.5 mph - N/A   Clear
6:36 PM 14.0 °F 2.0 °F 10.4 °F 86% 29.83 in 10.0 mi South 9.2 mph - N/A   Clear
6:56 PM 14.0 °F 1.2 °F 10.4 °F 86% 29.82 in 10.0 mi SSE 10.4 mph - N/A   Clear
7:16 PM 14.0 °F 0.5 °F 10.4 °F 86% 29.81 in 10.0 mi SSE 11.5 mph - N/A   Clear
7:36 PM 14.0 °F 1.2 °F 10.4 °F 86% 29.81 in 10.0 mi SSE 10.4 mph - N/A   Clear
7:56 PM 15.8 °F 5.1 °F 10.4 °F 79% 29.81 in 10.0 mi SSE 8.1 mph - N/A   Clear
8:16 PM 15.8 °F 2.7 °F 10.4 °F 79% 29.80 in 10.0 mi SSE 11.5 mph 17.3 mph N/A   Clear
8:36 PM 15.8 °F 4.2 °F 10.4 °F 79% 29.79 in 10.0 mi South 9.2 mph - N/A   Clear
8:56 PM 14.0 °F 2.0 °F 10.4 °F 86% 29.78 in 10.0 mi SSE 9.2 mph - N/A   Clear
9:16 PM 14.0 °F 2.0 °F 10.4 °F 86% 29.77 in 10.0 mi South 9.2 mph 16.1 mph N/A   Clear
9:36 PM 14.0 °F 2.0 °F 10.4 °F 86% 29.77 in 10.0 mi SSE 9.2 mph - N/A   Clear
9:56 PM 14.0 °F 2.0 °F 10.4 °F 86% 29.76 in 10.0 mi SSE 9.2 mph - N/A   Clear
10:16 PM 14.0 °F 0.5 °F 10.4 °F 86% 29.75 in 10.0 mi SSE 11.5 mph - N/A   Clear
10:36 PM 14.0 °F 1.2 °F 12.2 °F 93% 29.75 in 10.0 mi South 10.4 mph - N/A   Clear
10:56 PM 15.8 °F 2.7 °F 12.2 °F 86% 29.74 in 10.0 mi South 11.5 mph - N/A   Clear
11:16 PM 15.8 °F 2.7 °F 12.2 °F 86% 29.74 in 10.0 mi South 11.5 mph 17.3 mph N/A   Scattered Clouds
11:36 PM 15.8 °F 3.4 °F 12.2 °F 86% 29.73 in 10.0 mi South 10.4 mph - N/A   Mostly Cloudy
11:56 PM 15.8 °F 2.7 °F 12.2 °F 86% 29.72 in 7.0 mi South 11.5 mph 16.1 mph N/A   Overcast